Location: Makanda
(37.6176°N, 89.2090°W)
Time: 17:49:37
(UTC+00:00)

Cosmos 1340 - Pass Details

Date: 23 September 2019
Orbit: 502 x 506 km, 81.2° (Epoch: 19 October)

Event Time Altitude Azimuth Distance (km) Brightness Sun altitude
Rises 10:19:09 0° 340° (NNW) 2,614 6.2 -17.7°
Reaches altitude 10° 10:21:26 10° 330° (NNW) 1,723 5.2 -17.3°
Enters shadow 10:23:16 23° 309° (NW) 1,117 4.0 -16.9°
